Home > Weather > Santa Fe > Past weeks

Flag for USA Past Weather in Santa Fe, New Mexico, USA — Yesterday and Last 2 Weeks

Now
54 °F

Clear.


Feels Like: 51 °F
Forecast: 51 / 79 °F
Wind: 12 mph from Southeast

Location: Santa Fe County Municipal Airport

Current Time: May 30, 2016 at 4:48:24 AM

Latest Report: May 30, 2016 at 3:53 AM


Visibility: 10 mi

Pressure: 29.87 "Hg (23.14 "Hg at 2132m altitude)

Humidity: 69%

Dew Point: 44 °F

Location of Santa FeLocation

Past Weather in Santa Fe — Graph

°F

Santa Fe Temperature Yesterday

Maximum temperature yesterday: 84 °F (at 2:53 PM)
Minimum temperature yesterday: 49 °F (at 5:53 AM)
Average temperature yesterday: 67 °F

High & Low Weather Summary for the Past Weeks

 TemperatureHumidityPressure
High84 °F (May 29, 2:53 PM)97% (May 16, 6:53 AM)30.16 "Hg (May 16, 6:53 AM)
Low36 °F (May 19, 4:53 AM)4% (May 21, 2:53 PM)29.61 "Hg (May 15, 6:53 PM)
Average60 °F38%29.81 "Hg
* Reported May 15 2:53 AM — May 30 2:53 AM, Santa Fe, Weather by CustomWeather, © 2016

Note: Actual official high and low records may vary slightly from our data, if they occured in-between our weather recording intervals... More about our weather records

Advertising

Santa Fe Weather History for the Previous 24 Hours

Scroll right to see more
 ConditionsComfort  
Time TempWeatherWind HumidityBarometerVisibility
2:53 AM
Mon, May 30
55 °FClear.20 mph67%29.86 "Hg10 mi
1:53 AM57 °FClear.18 mph62%29.85 "Hg10 mi
12:53 AM60 °FClear.23 mph53%29.84 "Hg10 mi
11:53 PM
Sun, May 29
64 °FClear.25 mph40%29.82 "Hg10 mi
10:53 PM66 °FClear.16 mph29%29.82 "Hg10 mi
9:53 PM61 °FClear.8 mph14%29.84 "Hg10 mi
8:53 PM70 °FSunny.5 mph8%29.80 "Hg10 mi
7:53 PM75 °FSunny.10 mph7%29.80 "Hg10 mi
6:53 PM79 °FSunny.17 mph6%29.79 "Hg10 mi
5:53 PM80 °FSunny.12 mph6%29.82 "Hg10 mi
4:53 PM82 °FSunny.17 mph5%29.80 "Hg10 mi
3:53 PM83 °FSunny.16 mph6%29.83 "Hg10 mi
2:53 PM84 °FSunny.18 mph6%29.85 "Hg10 mi
1:53 PM81 °FSunny.8 mph7%29.88 "Hg10 mi
12:53 PM80 °FSunny.N/A7%29.90 "Hg10 mi
11:53 AM77 °FSunny.21 mph11%29.94 "Hg10 mi
10:53 AM76 °FSunny.17 mph13%29.97 "Hg10 mi
9:53 AM73 °FSunny.13 mph13%29.95 "Hg10 mi
8:53 AM67 °FSunny.8 mph22%29.96 "Hg10 mi
7:53 AM61 °FSunny.12 mph29%29.95 "Hg10 mi
6:53 AM55 °FSunny.9 mph31%29.95 "Hg10 mi
5:53 AM49 °FClear.12 mph35%29.94 "Hg10 mi
4:53 AM51 °FClear.12 mph31%29.91 "Hg10 mi
Weather by CustomWeather, © 2016

See weather overviewHow to use our weather pages